Year,Month,Day,Hour,Minute,Value (Times are PST for windgust in km/hr)
2010,01,18,00,00,22.50
2010,01,18,00,01,24.20
2010,01,18,00,02,19.30
2010,01,18,00,03,27.40
2010,01,18,00,04,22.50
2010,01,18,00,05,14.50
2010,01,18,00,06,11.30
2010,01,18,00,07,14.50
2010,01,18,00,08,17.70
2010,01,18,00,09,17.70
2010,01,18,00,10,20.90
2010,01,18,00,11,19.30
2010,01,18,00,12,20.90
2010,01,18,00,13,25.70
2010,01,18,00,14,24.20
2010,01,18,00,15,19.30
2010,01,18,00,16,27.40
2010,01,18,00,17,20.90
2010,01,18,00,18,17.70
2010,01,18,00,19,27.40
2010,01,18,00,20,27.40
2010,01,18,00,21,22.50
2010,01,18,00,22,24.20
2010,01,18,00,23,32.20
2010,01,18,00,24,20.90
2010,01,18,00,25,33.80
2010,01,18,00,26,17.70
2010,01,18,00,27,27.40
2010,01,18,00,28,25.70
2010,01,18,00,29,29.00
2010,01,18,00,30,32.20
2010,01,18,00,31,32.20
2010,01,18,00,32,32.20
2010,01,18,00,33,22.50
2010,01,18,00,34,33.80
2010,01,18,00,35,27.40
2010,01,18,00,36,30.60
2010,01,18,00,37,30.60
2010,01,18,00,38,35.40
2010,01,18,00,39,29.00
2010,01,18,00,40,40.20
2010,01,18,00,41,38.60
2010,01,18,00,42,22.50
2010,01,18,00,43,29.00
2010,01,18,00,44,32.20
2010,01,18,00,45,32.20
2010,01,18,00,46,41.80
2010,01,18,00,47,33.80
2010,01,18,00,48,29.00
2010,01,18,00,49,29.00
2010,01,18,00,50,25.70
2010,01,18,00,51,24.20
2010,01,18,00,52,27.40
2010,01,18,00,53,22.50
2010,01,18,00,54,24.20
2010,01,18,00,55,27.40
2010,01,18,00,56,29.00
2010,01,18,00,57,24.20
2010,01,18,00,58,30.60
2010,01,18,00,59,33.80
2010,01,18,01,00,27.40
2010,01,18,01,01,32.20
2010,01,18,01,02,32.20
2010,01,18,01,03,35.40
2010,01,18,01,04,37.00
2010,01,18,01,05,40.20
2010,01,18,01,06,35.40
2010,01,18,01,07,32.20
2010,01,18,01,08,32.20
2010,01,18,01,09,38.60
2010,01,18,01,10,27.40
2010,01,18,01,11,37.00
2010,01,18,01,12,25.70
2010,01,18,01,13,43.50
2010,01,18,01,14,45.10
2010,01,18,01,15,43.50
2010,01,18,01,16,38.60
2010,01,18,01,17,30.60
2010,01,18,01,18,33.80
2010,01,18,01,19,38.60
2010,01,18,01,20,29.00
2010,01,18,01,21,27.40
2010,01,18,01,22,30.60
2010,01,18,01,23,25.70
2010,01,18,01,24,32.20
2010,01,18,01,25,38.60
2010,01,18,01,26,32.20
2010,01,18,01,27,33.80
2010,01,18,01,28,33.80
2010,01,18,01,29,40.20
2010,01,18,01,30,40.20
2010,01,18,01,31,38.60
2010,01,18,01,32,37.00
2010,01,18,01,33,33.80
2010,01,18,01,34,33.80
2010,01,18,01,35,37.00
2010,01,18,01,36,32.20
2010,01,18,01,37,32.20
2010,01,18,01,38,38.60
2010,01,18,01,39,37.00
2010,01,18,01,40,37.00
2010,01,18,01,41,37.00
2010,01,18,01,42,45.10
2010,01,18,01,43,29.00
2010,01,18,01,44,32.20
2010,01,18,01,45,48.30
2010,01,18,01,46,41.80
2010,01,18,01,47,43.50
2010,01,18,01,48,35.40
2010,01,18,01,49,41.80
2010,01,18,01,50,38.60
2010,01,18,01,51,29.00
2010,01,18,01,52,53.10
2010,01,18,01,53,38.60
2010,01,18,01,54,41.80
2010,01,18,01,55,41.80
2010,01,18,01,56,40.20
2010,01,18,01,57,49.90
2010,01,18,01,58,41.80
2010,01,18,01,59,40.20
2010,01,18,02,00,51.50
2010,01,18,02,01,46.70
2010,01,18,02,02,41.80
2010,01,18,02,03,48.30
2010,01,18,02,04,53.10
2010,01,18,02,05,37.00
2010,01,18,02,06,48.30
2010,01,18,02,07,46.70
2010,01,18,02,08,49.90
2010,01,18,02,09,37.00
2010,01,18,02,10,37.00
2010,01,18,02,11,40.20
2010,01,18,02,12,38.60
2010,01,18,02,13,32.20
2010,01,18,02,14,38.60
2010,01,18,02,15,59.50
2010,01,18,02,16,41.80
2010,01,18,02,17,35.40
2010,01,18,02,18,35.40
2010,01,18,02,19,41.80
2010,01,18,02,20,46.70
2010,01,18,02,21,49.90
2010,01,18,02,22,62.70
2010,01,18,02,23,43.50
2010,01,18,02,24,45.10
2010,01,18,02,25,53.10
2010,01,18,02,26,46.70
2010,01,18,02,27,49.90
2010,01,18,02,28,51.50
2010,01,18,02,29,49.90
2010,01,18,02,30,51.50
2010,01,18,02,31,54.70
2010,01,18,02,32,46.70
2010,01,18,02,33,41.80
2010,01,18,02,34,46.70
2010,01,18,02,35,45.10
2010,01,18,02,36,56.30
2010,01,18,02,37,49.90
2010,01,18,02,38,57.90
2010,01,18,02,39,46.70
2010,01,18,02,40,53.10
2010,01,18,02,41,49.90
2010,01,18,02,42,49.90
2010,01,18,02,43,49.90
2010,01,18,02,44,46.70
2010,01,18,02,45,49.90
2010,01,18,02,46,62.70
2010,01,18,02,47,32.20
2010,01,18,02,48,45.10
2010,01,18,02,49,54.70
2010,01,18,02,50,41.80
2010,01,18,02,51,46.70
2010,01,18,02,52,43.50
2010,01,18,02,57,51.50
2010,01,18,02,58,43.50
2010,01,18,02,59,38.60
2010,01,18,03,00,46.70
2010,01,18,03,01,40.20
2010,01,18,03,02,43.50
2010,01,18,03,03,35.40
2010,01,18,03,04,48.30
2010,01,18,03,05,53.10
2010,01,18,03,06,33.80
2010,01,18,03,07,46.70
2010,01,18,03,08,53.10
2010,01,18,03,09,41.80
2010,01,18,03,10,49.90
2010,01,18,03,11,53.10
2010,01,18,03,12,56.30
2010,01,18,03,13,49.90
2010,01,18,03,14,40.20
2010,01,18,03,15,48.30
2010,01,18,03,16,46.70
2010,01,18,03,17,41.80
2010,01,18,03,18,45.10
2010,01,18,03,19,41.80
2010,01,18,03,20,38.60
2010,01,18,03,21,46.70
2010,01,18,03,22,30.60
2010,01,18,03,23,51.50
2010,01,18,03,24,43.50
2010,01,18,03,25,53.10
2010,01,18,03,26,54.70
2010,01,18,03,27,43.50
2010,01,18,03,28,48.30
2010,01,18,03,29,49.90
2010,01,18,03,30,43.50
2010,01,18,03,31,38.60
2010,01,18,03,32,46.70
2010,01,18,03,33,40.20
2010,01,18,03,34,37.00
2010,01,18,03,35,49.90
2010,01,18,03,36,53.10
2010,01,18,03,37,38.60
2010,01,18,03,38,35.40
2010,01,18,03,39,35.40
2010,01,18,03,40,49.90
2010,01,18,03,41,37.00
2010,01,18,03,42,29.00
2010,01,18,03,43,30.60
2010,01,18,03,44,30.60
2010,01,18,03,45,25.70
2010,01,18,03,46,40.20
2010,01,18,03,47,41.80
2010,01,18,03,48,38.60
2010,01,18,03,49,33.80
2010,01,18,03,50,45.10
2010,01,18,03,51,41.80
2010,01,18,03,52,33.80
2010,01,18,03,53,43.50
2010,01,18,03,54,37.00
2010,01,18,03,55,27.40
2010,01,18,03,56,41.80
2010,01,18,03,57,49.90
2010,01,18,03,58,35.40
2010,01,18,03,59,35.40
2010,01,18,04,00,40.20
2010,01,18,04,01,30.60
2010,01,18,04,02,32.20
2010,01,18,04,03,38.60
2010,01,18,04,04,38.60
2010,01,18,04,05,35.40
2010,01,18,04,06,33.80
2010,01,18,04,07,37.00
2010,01,18,04,08,37.00
2010,01,18,04,09,35.40
2010,01,18,04,10,37.00
2010,01,18,04,11,64.40
2010,01,18,04,12,45.10
2010,01,18,04,13,40.20
2010,01,18,04,14,37.00
2010,01,18,04,15,24.20
2010,01,18,04,16,32.20
2010,01,18,04,17,25.70
2010,01,18,04,18,41.80
2010,01,18,04,19,37.00
2010,01,18,04,20,32.20
2010,01,18,04,21,45.10
2010,01,18,04,22,35.40
2010,01,18,04,23,46.70
2010,01,18,04,24,49.90
2010,01,18,04,25,22.50
2010,01,18,04,26,29.00
2010,01,18,04,27,41.80
2010,01,18,04,28,29.00
2010,01,18,04,29,29.00
2010,01,18,04,30,33.80
2010,01,18,04,31,29.00
2010,01,18,04,32,29.00
2010,01,18,04,33,30.60
2010,01,18,04,34,33.80
2010,01,18,04,35,38.60
2010,01,18,04,36,33.80
2010,01,18,04,37,30.60
2010,01,18,04,38,51.50
2010,01,18,04,39,32.20
2010,01,18,04,40,32.20
2010,01,18,04,41,43.50
2010,01,18,04,42,38.60
2010,01,18,04,43,37.00
2010,01,18,04,44,38.60
2010,01,18,04,45,38.60
2010,01,18,04,46,40.20
2010,01,18,04,47,37.00
2010,01,18,04,48,27.40
2010,01,18,04,49,35.40
2010,01,18,04,50,37.00
2010,01,18,04,51,30.60
2010,01,18,04,52,30.60
2010,01,18,04,53,25.70
2010,01,18,04,54,32.20
2010,01,18,04,55,22.50
2010,01,18,04,56,27.40
2010,01,18,04,57,22.50
2010,01,18,04,58,33.80
2010,01,18,04,59,27.40
2010,01,18,05,00,25.70
2010,01,18,05,01,38.60
2010,01,18,05,02,43.50
2010,01,18,05,03,29.00
2010,01,18,05,04,25.70
2010,01,18,05,05,38.60
2010,01,18,05,06,38.60
2010,01,18,05,07,24.20
2010,01,18,05,08,25.70
2010,01,18,05,09,27.40
2010,01,18,05,10,41.80
2010,01,18,05,11,46.70
2010,01,18,05,12,35.40
2010,01,18,05,13,32.20
2010,01,18,05,14,25.70
2010,01,18,05,15,19.30
2010,01,18,05,16,22.50
2010,01,18,05,17,33.80
2010,01,18,05,18,24.20
2010,01,18,05,19,29.00
2010,01,18,05,20,30.60
2010,01,18,05,21,51.50
2010,01,18,05,22,40.20
2010,01,18,05,23,38.60
2010,01,18,05,24,41.80
2010,01,18,05,25,32.20
2010,01,18,05,26,27.40
2010,01,18,05,27,27.40
2010,01,18,05,28,27.40
2010,01,18,05,29,29.00
2010,01,18,05,30,30.60
2010,01,18,05,31,37.00
2010,01,18,05,32,45.10
2010,01,18,05,33,49.90
2010,01,18,05,34,41.80
2010,01,18,05,35,30.60
2010,01,18,05,36,25.70
2010,01,18,05,37,30.60
2010,01,18,05,38,22.50
2010,01,18,05,39,35.40
2010,01,18,05,40,30.60
2010,01,18,05,41,32.20
2010,01,18,05,42,30.60
2010,01,18,05,43,41.80
2010,01,18,05,44,25.70
2010,01,18,05,45,32.20
2010,01,18,05,46,16.10
2010,01,18,05,47,41.80
2010,01,18,05,48,35.40
2010,01,18,05,49,22.50
2010,01,18,05,50,22.50
2010,01,18,05,51,27.40
2010,01,18,05,52,24.20
2010,01,18,05,53,38.60
2010,01,18,05,54,29.00
2010,01,18,05,55,32.20
2010,01,18,05,56,27.40
2010,01,18,05,57,29.00
2010,01,18,05,58,24.20
2010,01,18,05,59,25.70
2010,01,18,06,00,19.30
2010,01,18,06,01,35.40
2010,01,18,06,02,38.60
2010,01,18,06,03,24.20
2010,01,18,06,04,27.40
2010,01,18,06,05,35.40
2010,01,18,06,06,35.40
2010,01,18,06,07,46.70
2010,01,18,06,08,37.00
2010,01,18,06,09,30.60
2010,01,18,06,10,19.30
2010,01,18,06,11,19.30
2010,01,18,06,12,32.20
2010,01,18,06,13,25.70
2010,01,18,06,14,32.20
2010,01,18,06,15,33.80
2010,01,18,06,16,30.60
2010,01,18,06,17,32.20
2010,01,18,06,18,24.20
2010,01,18,06,19,22.50
2010,01,18,06,20,27.40
2010,01,18,06,21,24.20
2010,01,18,06,22,25.70
2010,01,18,06,23,24.20
2010,01,18,06,24,22.50
2010,01,18,06,25,19.30
2010,01,18,06,26,22.50
2010,01,18,06,27,19.30
2010,01,18,06,28,27.40
2010,01,18,06,29,25.70
2010,01,18,06,30,25.70
2010,01,18,06,31,24.20
2010,01,18,06,32,30.60
2010,01,18,06,33,22.50
2010,01,18,06,34,32.20
2010,01,18,06,35,30.60
2010,01,18,06,36,27.40
2010,01,18,06,37,35.40
2010,01,18,06,38,24.20
2010,01,18,06,39,25.70
2010,01,18,06,40,33.80
2010,01,18,06,41,30.60
2010,01,18,06,42,24.20
2010,01,18,06,43,30.60
2010,01,18,06,44,33.80
2010,01,18,06,45,30.60
2010,01,18,06,46,32.20
2010,01,18,06,47,33.80
2010,01,18,06,48,29.00
2010,01,18,06,49,17.70
2010,01,18,06,50,17.70
2010,01,18,06,51,17.70
2010,01,18,06,52,19.30
2010,01,18,06,53,17.70
2010,01,18,06,54,19.30
2010,01,18,06,55,29.00
2010,01,18,06,56,22.50
2010,01,18,06,57,27.40
2010,01,18,06,58,29.00
2010,01,18,06,59,22.50
2010,01,18,07,00,20.90
2010,01,18,07,01,38.60
2010,01,18,07,02,27.40
2010,01,18,07,03,27.40
2010,01,18,07,04,27.40
2010,01,18,07,05,30.60
2010,01,18,07,06,25.70
2010,01,18,07,07,24.20
2010,01,18,07,08,20.90
2010,01,18,07,09,19.30
2010,01,18,07,10,30.60
2010,01,18,07,11,38.60
2010,01,18,07,12,32.20
2010,01,18,07,13,30.60
2010,01,18,07,14,24.20
2010,01,18,07,15,17.70
2010,01,18,07,16,33.80
2010,01,18,07,17,24.20
2010,01,18,07,18,19.30
2010,01,18,07,19,22.50
2010,01,18,07,20,20.90
2010,01,18,07,21,17.70
2010,01,18,07,22,32.20
2010,01,18,07,23,27.40
2010,01,18,07,24,19.30
2010,01,18,07,25,22.50
2010,01,18,07,26,25.70
2010,01,18,07,27,29.00
2010,01,18,07,28,25.70
2010,01,18,07,29,22.50
2010,01,18,07,30,27.40
2010,01,18,07,31,30.60
2010,01,18,07,32,29.00
2010,01,18,07,33,16.10
2010,01,18,07,34,20.90
2010,01,18,07,35,25.70
2010,01,18,07,36,19.30
2010,01,18,07,37,14.50
2010,01,18,07,38,19.30
2010,01,18,07,39,17.70
2010,01,18,07,40,16.10
2010,01,18,07,41,14.50
2010,01,18,07,42,25.70
2010,01,18,07,43,17.70
2010,01,18,07,44,20.90
2010,01,18,07,45,20.90
2010,01,18,07,46,22.50
2010,01,18,07,47,22.50
2010,01,18,07,48,22.50
2010,01,18,07,49,27.40
2010,01,18,07,50,27.40
2010,01,18,07,51,17.70
2010,01,18,07,52,22.50
2010,01,18,07,53,24.20
2010,01,18,07,54,20.90
2010,01,18,07,55,19.30
2010,01,18,07,56,20.90
2010,01,18,07,57,22.50
2010,01,18,07,58,20.90
2010,01,18,07,59,20.90
2010,01,18,08,00,19.30
2010,01,18,08,01,20.90
2010,01,18,08,02,16.10
2010,01,18,08,03,17.70
2010,01,18,08,04,17.70
2010,01,18,08,05,24.20
2010,01,18,08,06,17.70
2010,01,18,08,07,16.10
2010,01,18,08,08,20.90
2010,01,18,08,09,16.10
2010,01,18,08,10,24.20
2010,01,18,08,11,19.30
2010,01,18,08,12,20.90
2010,01,18,08,13,19.30
2010,01,18,08,14,22.50
2010,01,18,08,15,29.00
2010,01,18,08,16,27.40
2010,01,18,08,17,27.40
2010,01,18,08,18,17.70
2010,01,18,08,19,37.00
2010,01,18,08,20,32.20
2010,01,18,08,21,17.70
2010,01,18,08,22,20.90
2010,01,18,08,23,24.20
2010,01,18,08,24,17.70
2010,01,18,08,25,25.70
2010,01,18,08,26,25.70
2010,01,18,08,27,19.30
2010,01,18,08,28,33.80
2010,01,18,08,29,20.90
2010,01,18,08,30,14.50
2010,01,18,08,31,22.50
2010,01,18,08,32,22.50
2010,01,18,08,33,22.50
2010,01,18,08,34,20.90
2010,01,18,08,35,29.00
2010,01,18,08,36,19.30
2010,01,18,08,37,17.70
2010,01,18,08,38,20.90
2010,01,18,08,39,24.20
2010,01,18,08,40,20.90
2010,01,18,08,41,19.30
2010,01,18,08,42,22.50
2010,01,18,08,43,22.50
2010,01,18,08,44,24.20
2010,01,18,08,45,24.20
2010,01,18,08,46,17.70
2010,01,18,08,47,19.30
2010,01,18,08,48,22.50
2010,01,18,08,49,30.60
2010,01,18,08,50,24.20
2010,01,18,08,51,19.30
2010,01,18,08,52,40.20
2010,01,18,08,53,22.50
2010,01,18,08,54,20.90
2010,01,18,08,55,20.90
2010,01,18,08,56,19.30
2010,01,18,08,57,32.20
2010,01,18,08,58,19.30
2010,01,18,08,59,32.20
2010,01,18,09,00,22.50
2010,01,18,09,01,16.10
2010,01,18,09,02,22.50
2010,01,18,09,03,22.50
2010,01,18,09,04,16.10
2010,01,18,09,05,16.10
2010,01,18,09,06,14.50
2010,01,18,09,07,25.70
2010,01,18,09,08,30.60
2010,01,18,09,09,29.00
2010,01,18,09,10,24.20
2010,01,18,09,11,20.90
2010,01,18,09,12,20.90
2010,01,18,09,13,17.70
2010,01,18,09,14,14.50
2010,01,18,09,15,25.70
2010,01,18,09,16,17.70
2010,01,18,09,17,40.20
2010,01,18,09,18,32.20
2010,01,18,09,19,24.20
2010,01,18,09,20,22.50
2010,01,18,09,21,37.00
2010,01,18,09,22,32.20
2010,01,18,09,23,14.50
2010,01,18,09,24,22.50
2010,01,18,09,25,16.10
2010,01,18,09,26,25.70
2010,01,18,09,27,20.90
2010,01,18,09,28,14.50
2010,01,18,09,29,20.90
2010,01,18,09,30,25.70
2010,01,18,09,31,16.10
2010,01,18,09,32,19.30
2010,01,18,09,33,9.60
2010,01,18,09,34,9.60
2010,01,18,09,35,20.90
2010,01,18,09,36,11.30
2010,01,18,09,37,19.30
2010,01,18,09,38,14.50
2010,01,18,09,39,25.70
2010,01,18,09,40,16.10
2010,01,18,09,41,20.90
2010,01,18,09,42,16.10
2010,01,18,09,43,16.10
2010,01,18,09,44,17.70
2010,01,18,09,45,20.90
2010,01,18,09,46,20.90
2010,01,18,09,47,24.20
2010,01,18,09,48,22.50
2010,01,18,09,49,22.50
2010,01,18,09,50,29.00
2010,01,18,09,51,27.40
2010,01,18,09,52,9.60
2010,01,18,09,53,25.70
2010,01,18,09,54,20.90
2010,01,18,09,55,20.90
2010,01,18,09,56,24.20
2010,01,18,09,57,22.50
2010,01,18,09,58,24.20
2010,01,18,09,59,24.20
2010,01,18,10,00,22.50
2010,01,18,10,01,16.10
2010,01,18,10,02,24.20
2010,01,18,10,03,27.40
2010,01,18,10,04,22.50
2010,01,18,10,05,25.70
2010,01,18,10,06,16.10
2010,01,18,10,07,16.10
2010,01,18,10,08,24.20
2010,01,18,10,09,20.90
2010,01,18,10,10,20.90
2010,01,18,10,11,20.90
2010,01,18,10,12,24.20
2010,01,18,10,13,32.20
2010,01,18,10,14,25.70
2010,01,18,10,15,17.70
2010,01,18,10,16,24.20
2010,01,18,10,17,9.60
2010,01,18,10,18,20.90
2010,01,18,10,19,19.30
2010,01,18,10,20,16.10
2010,01,18,10,21,14.50
2010,01,18,10,22,19.30
2010,01,18,10,23,20.90
2010,01,18,10,24,20.90
2010,01,18,10,25,24.20
2010,01,18,10,26,20.90
2010,01,18,10,27,22.50
2010,01,18,10,28,22.50
2010,01,18,10,29,19.30
2010,01,18,10,30,27.40
2010,01,18,10,31,19.30
2010,01,18,10,32,17.70
2010,01,18,10,33,16.10
2010,01,18,10,34,17.70
2010,01,18,10,35,14.50
2010,01,18,10,36,17.70
2010,01,18,10,37,16.10
2010,01,18,10,38,22.50
2010,01,18,10,39,20.90
2010,01,18,10,40,20.90
2010,01,18,10,41,22.50
2010,01,18,10,42,22.50
2010,01,18,10,43,20.90
2010,01,18,10,44,17.70
2010,01,18,10,45,19.30
2010,01,18,10,46,17.70
2010,01,18,10,47,19.30
2010,01,18,10,48,17.70
2010,01,18,10,49,19.30
2010,01,18,10,50,20.90
2010,01,18,10,51,17.70
2010,01,18,10,52,16.10
2010,01,18,10,53,24.20
2010,01,18,10,54,20.90
2010,01,18,10,55,14.50
2010,01,18,10,56,14.50
2010,01,18,10,57,22.50
2010,01,18,10,58,24.20
2010,01,18,10,59,20.90
2010,01,18,11,00,19.30
2010,01,18,11,01,32.20
2010,01,18,11,02,19.30
2010,01,18,11,03,17.70
2010,01,18,11,04,16.10
2010,01,18,11,05,16.10
2010,01,18,11,06,17.70
2010,01,18,11,07,19.30
2010,01,18,11,08,12.90
2010,01,18,11,09,19.30
2010,01,18,11,10,20.90
2010,01,18,11,11,17.70
2010,01,18,11,12,11.30
2010,01,18,11,13,17.70
2010,01,18,11,14,22.50
2010,01,18,11,15,17.70
2010,01,18,11,16,19.30
2010,01,18,11,17,22.50
2010,01,18,11,18,19.30
2010,01,18,11,19,20.90
2010,01,18,11,20,22.50
2010,01,18,11,21,17.70
2010,01,18,11,22,14.50
2010,01,18,11,23,16.10
2010,01,18,11,24,9.60
2010,01,18,11,25,16.10
2010,01,18,11,26,14.50
2010,01,18,11,27,14.50
2010,01,18,11,28,9.60
2010,01,18,11,29,8.10
2010,01,18,11,30,6.40
2010,01,18,11,31,3.20
2010,01,18,11,32,4.80
2010,01,18,11,33,6.40
2010,01,18,11,34,4.80
2010,01,18,11,35,6.40
2010,01,18,11,36,4.80
2010,01,18,11,37,6.40
2010,01,18,11,38,6.40
2010,01,18,11,39,8.10
2010,01,18,11,40,8.10
2010,01,18,11,41,9.60
2010,01,18,11,42,4.80
2010,01,18,11,43,8.10
2010,01,18,11,44,11.30
2010,01,18,11,45,6.40
2010,01,18,11,46,8.10
2010,01,18,11,47,9.60
2010,01,18,11,48,4.80
2010,01,18,11,49,3.20
2010,01,18,11,50,1.60
2010,01,18,11,51,3.20
2010,01,18,11,52,3.20
2010,01,18,11,53,1.60
2010,01,18,11,54,1.60
2010,01,18,11,55,1.60
2010,01,18,11,56,1.60
2010,01,18,11,57,1.60
2010,01,18,11,58,1.60
2010,01,18,11,59,3.20
2010,01,18,12,00,6.40
2010,01,18,12,01,6.40
2010,01,18,12,02,4.80
2010,01,18,12,03,4.80
2010,01,18,12,04,3.20
2010,01,18,12,05,1.60
2010,01,18,12,06,3.20
2010,01,18,12,07,4.80
2010,01,18,12,08,3.20
2010,01,18,12,09,3.20
2010,01,18,12,10,6.40
2010,01,18,12,11,4.80
2010,01,18,12,12,6.40
2010,01,18,12,13,4.80
2010,01,18,12,14,6.40
2010,01,18,12,15,11.30
2010,01,18,12,16,6.40
2010,01,18,12,17,14.50
2010,01,18,12,18,17.70
2010,01,18,12,19,17.70
2010,01,18,12,20,14.50
2010,01,18,12,21,14.50
2010,01,18,12,22,11.30
2010,01,18,12,23,9.60
2010,01,18,12,24,4.80
2010,01,18,12,25,4.80
2010,01,18,12,26,8.10
2010,01,18,12,27,9.60
2010,01,18,12,28,16.10
2010,01,18,12,29,11.30
2010,01,18,12,30,17.70
2010,01,18,12,31,11.30
2010,01,18,12,32,8.10
2010,01,18,12,33,14.50
2010,01,18,12,34,9.60
2010,01,18,12,35,8.10
2010,01,18,12,36,6.40
2010,01,18,12,37,6.40
2010,01,18,12,38,11.30
2010,01,18,12,39,4.80
2010,01,18,12,40,11.30
2010,01,18,12,41,9.60
2010,01,18,12,42,9.60
2010,01,18,12,43,8.10
2010,01,18,12,44,4.80
2010,01,18,12,45,4.80
2010,01,18,12,46,8.10
2010,01,18,12,47,8.10
2010,01,18,12,48,6.40
2010,01,18,12,49,6.40
2010,01,18,12,50,6.40
2010,01,18,12,51,8.10
2010,01,18,12,52,9.60
2010,01,18,12,53,6.40
2010,01,18,12,54,6.40
2010,01,18,12,55,6.40
2010,01,18,12,56,4.80
2010,01,18,12,57,4.80
2010,01,18,12,58,4.80
2010,01,18,12,59,4.80
2010,01,18,13,00,4.80
2010,01,18,13,01,6.40
2010,01,18,13,02,6.40
2010,01,18,13,03,4.80
2010,01,18,13,04,6.40
2010,01,18,13,05,6.40
2010,01,18,13,06,8.10
2010,01,18,13,07,6.40
2010,01,18,13,08,8.10
2010,01,18,13,09,16.10
2010,01,18,13,10,6.40
2010,01,18,13,11,6.40
2010,01,18,13,12,9.60
2010,01,18,13,13,4.80
2010,01,18,13,14,4.80
2010,01,18,13,15,8.10
2010,01,18,13,16,4.80
2010,01,18,13,17,4.80
2010,01,18,13,18,4.80
2010,01,18,13,19,3.20
2010,01,18,13,20,4.80
2010,01,18,13,21,3.20
2010,01,18,13,22,4.80
2010,01,18,13,23,6.40
2010,01,18,13,24,6.40
2010,01,18,13,25,4.80
2010,01,18,13,26,3.20
2010,01,18,13,27,4.80
2010,01,18,13,28,4.80
2010,01,18,13,29,6.40
2010,01,18,13,30,9.60
2010,01,18,13,31,8.10
2010,01,18,13,32,8.10
2010,01,18,13,33,9.60
2010,01,18,13,34,8.10
2010,01,18,13,35,8.10
2010,01,18,13,36,8.10
2010,01,18,13,37,8.10
2010,01,18,13,38,8.10
2010,01,18,13,39,9.60
2010,01,18,13,40,8.10
2010,01,18,13,41,8.10
2010,01,18,13,42,4.80
2010,01,18,13,43,4.80
2010,01,18,13,44,4.80
2010,01,18,13,45,6.40
2010,01,18,13,46,6.40
2010,01,18,13,47,9.60
2010,01,18,13,48,9.60
2010,01,18,13,49,8.10
2010,01,18,13,50,4.80
2010,01,18,13,51,4.80
2010,01,18,13,52,4.80
2010,01,18,13,53,4.80
2010,01,18,13,54,4.80
2010,01,18,13,55,3.20
2010,01,18,13,56,4.80
2010,01,18,13,57,4.80
2010,01,18,13,58,3.20
2010,01,18,13,59,0.00
2010,01,18,14,00,3.20
2010,01,18,14,01,4.80
2010,01,18,14,02,3.20
2010,01,18,14,03,3.20
2010,01,18,14,04,4.80
2010,01,18,14,05,1.60
2010,01,18,14,06,4.80
2010,01,18,14,07,4.80
2010,01,18,14,08,3.20
2010,01,18,14,09,4.80
2010,01,18,14,10,3.20
2010,01,18,14,11,4.80
2010,01,18,14,12,4.80
2010,01,18,14,13,1.60
2010,01,18,14,14,4.80
2010,01,18,14,15,3.20
2010,01,18,14,16,3.20
2010,01,18,14,17,1.60
2010,01,18,14,18,4.80
2010,01,18,14,19,1.60
2010,01,18,14,20,4.80
2010,01,18,14,21,4.80
2010,01,18,14,22,3.20
2010,01,18,14,23,4.80
2010,01,18,14,24,4.80
2010,01,18,14,25,4.80
2010,01,18,14,26,3.20
2010,01,18,14,27,1.60
2010,01,18,14,28,3.20
2010,01,18,14,29,1.60
2010,01,18,14,30,3.20
2010,01,18,14,31,4.80
2010,01,18,14,32,4.80
2010,01,18,14,33,3.20
2010,01,18,14,34,3.20
2010,01,18,14,35,4.80
2010,01,18,14,36,3.20
2010,01,18,14,37,3.20
2010,01,18,14,38,1.60
2010,01,18,14,39,1.60
2010,01,18,14,40,0.00
2010,01,18,14,41,3.20
2010,01,18,14,42,0.00
2010,01,18,14,43,3.20
2010,01,18,14,44,3.20
2010,01,18,14,45,4.80
2010,01,18,14,46,3.20
2010,01,18,14,47,3.20
2010,01,18,14,48,1.60
2010,01,18,14,49,0.00
2010,01,18,14,50,1.60
2010,01,18,14,51,1.60
2010,01,18,14,52,1.60
2010,01,18,14,53,4.80
2010,01,18,14,54,4.80
2010,01,18,14,55,6.40
2010,01,18,14,56,6.40
2010,01,18,14,57,6.40
2010,01,18,14,58,6.40
2010,01,18,14,59,8.10
2010,01,18,15,00,8.10
2010,01,18,15,01,8.10
2010,01,18,15,02,6.40
2010,01,18,15,03,4.80
2010,01,18,15,04,1.60
2010,01,18,15,05,0.00
2010,01,18,15,06,1.60
2010,01,18,15,07,0.00
2010,01,18,15,08,0.00
2010,01,18,15,09,0.00
2010,01,18,15,10,0.00
2010,01,18,15,11,0.00
2010,01,18,15,12,0.00
2010,01,18,15,13,1.60
2010,01,18,15,14,0.00
2010,01,18,15,15,0.00
2010,01,18,15,16,0.00
2010,01,18,15,17,0.00
2010,01,18,15,18,3.20
2010,01,18,15,19,4.80
2010,01,18,15,20,1.60
2010,01,18,15,21,1.60
2010,01,18,15,22,0.00
2010,01,18,15,23,1.60
2010,01,18,15,24,1.60
2010,01,18,15,25,3.20
2010,01,18,15,26,1.60
2010,01,18,15,27,1.60
2010,01,18,15,28,1.60
2010,01,18,15,29,3.20
2010,01,18,15,30,3.20
2010,01,18,15,31,1.60
2010,01,18,15,32,0.00
2010,01,18,15,33,0.00
2010,01,18,15,34,0.00
2010,01,18,15,35,0.00
2010,01,18,15,36,3.20
2010,01,18,15,37,3.20
2010,01,18,15,38,0.00
2010,01,18,15,39,0.00
2010,01,18,15,40,0.00
2010,01,18,15,41,0.00
2010,01,18,15,42,0.00
2010,01,18,15,43,1.60
2010,01,18,15,44,0.00
2010,01,18,15,45,0.00
2010,01,18,15,46,1.60
2010,01,18,15,47,1.60
2010,01,18,15,48,0.00
2010,01,18,15,49,1.60
2010,01,18,15,50,1.60
2010,01,18,15,51,1.60
2010,01,18,15,52,0.00
2010,01,18,15,53,0.00
2010,01,18,15,54,0.00
2010,01,18,15,55,0.00
2010,01,18,15,56,0.00
2010,01,18,15,57,0.00
2010,01,18,15,58,0.00
2010,01,18,15,59,0.00
2010,01,18,16,00,0.00
2010,01,18,16,01,0.00
2010,01,18,16,02,1.60
2010,01,18,16,03,1.60
2010,01,18,16,04,3.20
2010,01,18,16,05,1.60
2010,01,18,16,06,0.00
2010,01,18,16,07,0.00
2010,01,18,16,08,1.60
2010,01,18,16,09,1.60
2010,01,18,16,10,3.20
2010,01,18,16,11,3.20
2010,01,18,16,12,3.20
2010,01,18,16,13,0.00
2010,01,18,16,14,1.60
2010,01,18,16,15,1.60
2010,01,18,16,16,1.60
2010,01,18,16,17,1.60
2010,01,18,16,18,1.60
2010,01,18,16,19,1.60
2010,01,18,16,20,1.60
2010,01,18,16,21,1.60
2010,01,18,16,22,3.20
2010,01,18,16,23,3.20
2010,01,18,16,24,3.20
2010,01,18,16,25,1.60
2010,01,18,16,26,0.00
2010,01,18,16,27,1.60
2010,01,18,16,28,0.00
2010,01,18,16,29,0.00
2010,01,18,16,30,0.00
2010,01,18,16,31,0.00
2010,01,18,16,32,3.20
2010,01,18,16,33,1.60
2010,01,18,16,34,0.00
2010,01,18,16,35,1.60
2010,01,18,16,36,1.60
2010,01,18,16,37,0.00
2010,01,18,16,38,1.60
2010,01,18,16,39,1.60
2010,01,18,16,40,0.00
2010,01,18,16,41,1.60
2010,01,18,16,42,1.60
2010,01,18,16,43,1.60
2010,01,18,16,44,0.00
2010,01,18,16,45,1.60
2010,01,18,16,46,3.20
2010,01,18,16,47,3.20
2010,01,18,16,48,1.60
2010,01,18,16,49,1.60
2010,01,18,16,50,1.60
2010,01,18,16,51,1.60
2010,01,18,16,52,3.20
2010,01,18,16,53,3.20
2010,01,18,16,54,4.80
2010,01,18,16,55,3.20
2010,01,18,16,56,1.60
2010,01,18,16,57,0.00
2010,01,18,16,58,0.00
2010,01,18,16,59,0.00
2010,01,18,17,00,1.60
2010,01,18,17,01,3.20
2010,01,18,17,02,1.60
2010,01,18,17,03,0.00
2010,01,18,17,04,1.60
2010,01,18,17,05,1.60
2010,01,18,17,06,0.00
2010,01,18,17,07,1.60
2010,01,18,17,08,3.20
2010,01,18,17,09,3.20
2010,01,18,17,10,3.20
2010,01,18,17,11,0.00
2010,01,18,17,12,0.00
2010,01,18,17,13,1.60
2010,01,18,17,14,1.60
2010,01,18,17,15,1.60
2010,01,18,17,16,0.00
2010,01,18,17,17,0.00
2010,01,18,17,18,0.00
2010,01,18,17,19,0.00
2010,01,18,17,20,1.60
2010,01,18,17,21,3.20
2010,01,18,17,22,1.60
2010,01,18,17,23,0.00
2010,01,18,17,24,0.00
2010,01,18,17,25,1.60
2010,01,18,17,26,1.60
2010,01,18,17,27,3.20
2010,01,18,17,28,3.20
2010,01,18,17,29,4.80
2010,01,18,17,30,1.60
2010,01,18,17,31,1.60
2010,01,18,17,32,1.60
2010,01,18,17,33,0.00
2010,01,18,17,34,1.60
2010,01,18,17,35,1.60
2010,01,18,17,36,1.60
2010,01,18,17,37,3.20
2010,01,18,17,38,1.60
2010,01,18,17,39,1.60